Saratoga, WY

3:12 PM MST on February 24, 2017 (GMT -0700)
Shively

Weather History for KSAA - April, 2014

Change the Weather History Date:

Tuesday, April 15, 2014

  Actual Average Record
Temperature  
Mean Temperature 40 °F -  
Max Temperature 55 °F 57 °F 55 °F (2014)
Min Temperature 24 °F 28 °F 24 °F (2014)
Degree Days  
Heating Degree Days 26    
Moisture  
Dew Point 19 °F    
Average Humidity 47    
Maximum Humidity 80    
Minimum Humidity 22    
Precipitation  
Precipitation 0.00 in - - ()
Sea Level Pressure  
Sea Level Pressure 29.94 in    
Wind  
Wind Speed 12 mph (SSW)    
Max Wind Speed 30 mph    
Max Gust Speed 46 mph    
Visibility 10 miles    
Events      
Averages and records for this station are not official NWS values.
T = Trace of Precipitation, MM = Missing Value Source: NWS Daily Summary

Daily Weather History Graph

Daily Weather History Graph

Search for Another Location

Airport or City:

Trip Planner

Search our weather history database for the weather conditions in past years. The results will help you decide how hot, cold, wet, or windy it might be!

Date:

Astronomy

Apr. 15, 2014 Rise Set
Actual Time 6:27 AM MDT 7:47 PM MDT
Civil Twilight 5:58 AM MDT 8:16 PM MDT
Nautical Twilight 5:24 AM MDT 8:51 PM MDT
Astronomical Twilight 4:48 AM MDT 9:27 PM MDT
Moon 8:32 PM MDT (4/15) 6:37 AM MDT (4/15)
Length of Visible Light 14h 17m
Length of Day
13h 20m
Full, 100% of the Moon is Illuminated
Apr 15
Full
Apr 22
Last Quarter
Apr 29
New
May 6
First Quarter
May 14
Full

Hourly Weather History & Observations

Time (MDT) Temp. Windchill Dew Point Humidity Pressure Visibility Wind Dir Wind Speed Gust Speed Precip Events Conditions
12:15 AM 26.6 °F 17.5 °F 19.4 °F 74% 30.15 in 7.0 mi ESE 9.2 mph - N/A   Clear
12:35 AM 24.8 °F 16.9 °F 19.4 °F 80% 30.14 in 10.0 mi ESE 6.9 mph - N/A   Clear
12:55 AM 26.6 °F 18.2 °F 19.4 °F 74% 30.15 in 10.0 mi SE 8.1 mph - N/A   Clear
1:15 AM 26.6 °F 21.2 °F 17.6 °F 69% 30.14 in 10.0 mi SSE 4.6 mph - N/A   Clear
1:35 AM 30.2 °F 21.3 °F 17.6 °F 60% 30.13 in 10.0 mi SE 10.4 mph 17.3 mph N/A   Clear
1:55 AM 26.6 °F 17.5 °F 17.6 °F 69% 30.12 in 10.0 mi SSE 9.2 mph - N/A   Clear
2:15 AM 28.4 °F 19.7 °F 17.6 °F 64% 30.12 in 10.0 mi SSE 9.2 mph - N/A   Clear
2:35 AM 26.6 °F 18.2 °F 17.6 °F 69% 30.11 in 10.0 mi SE 8.1 mph - N/A   Clear
2:55 AM 28.4 °F 21.2 °F 17.6 °F 64% 30.11 in 10.0 mi SSE 6.9 mph - N/A   Clear
3:15 AM 26.6 °F 21.2 °F 17.6 °F 69% 30.11 in 10.0 mi SSE 4.6 mph - N/A   Clear
3:35 AM 28.4 °F 19.7 °F 17.6 °F 64% 30.10 in 10.0 mi SE 9.2 mph - N/A   Clear
3:55 AM 26.6 °F 17.5 °F 17.6 °F 69% 30.10 in 10.0 mi South 9.2 mph - N/A   Clear
4:15 AM 26.6 °F 16.2 °F 17.6 °F 69% 30.09 in 10.0 mi SE 11.5 mph - N/A   Clear
4:35 AM 26.6 °F 16.2 °F 17.6 °F 69% 30.09 in 10.0 mi SSE 11.5 mph - N/A   Clear
4:55 AM 26.6 °F 17.5 °F 15.8 °F 64% 30.07 in 10.0 mi SE 9.2 mph - N/A   Clear
5:15 AM 26.6 °F 17.5 °F 15.8 °F 64% 30.07 in 10.0 mi South 9.2 mph 17.3 mph N/A   Clear
5:55 AM 26.6 °F 16.8 °F 15.8 °F 64% 30.06 in 10.0 mi SSE 10.4 mph - N/A   Clear
6:15 AM 26.6 °F 18.2 °F 15.8 °F 64% 30.05 in 10.0 mi SSE 8.1 mph - N/A   Clear
6:35 AM 28.4 °F 19.7 °F 15.8 °F 59% 30.05 in 10.0 mi SSE 9.2 mph - N/A   Clear
6:55 AM 28.4 °F 21.2 °F 17.6 °F 64% 30.05 in 10.0 mi SSE 6.9 mph - N/A   Clear
7:15 AM 30.2 °F 21.9 °F 17.6 °F 60% 30.04 in 10.0 mi SSE 9.2 mph - N/A   Clear
7:35 AM 32.0 °F 25.6 °F 17.6 °F 55% 30.04 in 10.0 mi SSE 6.9 mph 19.6 mph N/A   Clear
7:55 AM 32.0 °F 24.8 °F 17.6 °F 55% 30.03 in 10.0 mi SSE 8.1 mph - N/A   Scattered Clouds
8:15 AM 33.8 °F 27.7 °F 17.6 °F 52% 30.03 in 10.0 mi SSE 6.9 mph - N/A   Mostly Cloudy
8:35 AM 33.8 °F 29.6 °F 17.6 °F 52% 30.03 in 10.0 mi South 4.6 mph - N/A   Overcast
8:55 AM 35.6 °F 28.6 °F 19.4 °F 52% 30.03 in 10.0 mi SE 9.2 mph - N/A   Overcast
9:15 AM 35.6 °F 28.0 °F 19.4 °F 52% 30.01 in 10.0 mi SE 10.4 mph - N/A   Overcast
9:35 AM 35.6 °F 28.6 °F 19.4 °F 52% 30.01 in 10.0 mi SE 9.2 mph - N/A   Overcast
9:55 AM 37.4 °F 33.8 °F 19.4 °F 48% 30.02 in 10.0 mi East 4.6 mph - N/A   Overcast
10:15 AM 39.2 °F 37.0 °F 19.4 °F 45% 30.01 in 10.0 mi South 3.5 mph - N/A   Mostly Cloudy
10:35 AM 39.2 °F 34.2 °F 17.6 °F 42% 30.01 in 10.0 mi West 6.9 mph - N/A   Mostly Cloudy
10:55 AM 41.0 °F 36.4 °F 17.6 °F 39% 30.00 in 10.0 mi SW 6.9 mph - N/A   Overcast
11:35 AM 42.8 °F 36.6 °F 17.6 °F 36% 29.99 in 10.0 mi SSW 11.5 mph - N/A   Overcast
11:55 AM 42.8 °F 37.5 °F 17.6 °F 36% 29.99 in 10.0 mi SSW 9.2 mph - N/A   Overcast
12:15 PM 44.6 °F 38.8 °F 17.6 °F 34% 29.97 in 10.0 mi SSW 11.5 mph 16.1 mph N/A   Mostly Cloudy
12:35 PM 44.6 °F 38.4 °F 17.6 °F 34% 29.96 in 10.0 mi SSW 12.7 mph - N/A   Mostly Cloudy
12:55 PM 46.4 °F 39.5 °F 17.6 °F 32% 29.94 in 10.0 mi SW 17.3 mph - N/A   Scattered Clouds
1:16 PM 50.0 °F - 15.8 °F 26% 29.92 in 10.0 mi WSW 17.3 mph 23.0 mph N/A   Clear
1:35 PM 50.0 °F - 15.8 °F 26% 29.91 in 10.0 mi SW 20.7 mph 26.5 mph N/A   Clear
1:55 PM 50.0 °F - 17.6 °F 28% 29.90 in 10.0 mi WSW 18.4 mph 27.6 mph N/A   Mostly Cloudy
2:15 PM 50.0 °F - 17.6 °F 28% 29.88 in 10.0 mi SW 23.0 mph 27.6 mph N/A   Overcast
2:35 PM 50.0 °F - 15.8 °F 26% 29.87 in 10.0 mi SW 21.9 mph 28.8 mph N/A   Mostly Cloudy
2:55 PM 51.8 °F - 17.6 °F 26% 29.86 in 10.0 mi SW 20.7 mph 32.2 mph N/A   Scattered Clouds
3:15 PM 51.8 °F - 15.8 °F 24% 29.85 in 10.0 mi SSW 24.2 mph 31.1 mph N/A   Clear
3:55 PM 53.6 °F - 15.8 °F 22% 29.82 in 10.0 mi SW 13.8 mph 27.6 mph N/A   Mostly Cloudy
4:15 PM 55.4 °F - 17.6 °F 23% 29.81 in 10.0 mi WSW 24.2 mph 32.2 mph N/A   Mostly Cloudy
4:35 PM 51.8 °F - 14.0 °F 22% 29.79 in 10.0 mi SSW 24.2 mph 32.2 mph N/A   Mostly Cloudy
4:55 PM 51.8 °F - 14.0 °F 22% 29.78 in 10.0 mi SSW 26.5 mph 38.0 mph N/A   Overcast
5:15 PM 53.6 °F - 17.6 °F 24% 29.78 in 10.0 mi SW 20.7 mph 32.2 mph N/A   Overcast
5:35 PM 53.6 °F - 17.6 °F 24% 29.77 in 10.0 mi SW 28.8 mph 35.7 mph N/A   Mostly Cloudy
5:55 PM 50.0 °F - 19.4 °F 30% 29.77 in 10.0 mi WSW 23.0 mph 35.7 mph N/A   Mostly Cloudy
6:15 PM 50.0 °F - 19.4 °F 30% 29.77 in 10.0 mi WSW 23.0 mph 29.9 mph N/A   Overcast
6:35 PM 50.0 °F - 19.4 °F 30% 29.78 in 10.0 mi WSW 29.9 mph 46.0 mph N/A   Overcast
6:55 PM 46.4 °F 38.3 °F 19.4 °F 34% 29.78 in 10.0 mi WSW 23.0 mph 42.6 mph N/A   Overcast
7:15 PM 46.4 °F 37.7 °F 21.2 °F 37% 29.77 in 10.0 mi West 26.5 mph 41.4 mph N/A   Overcast
7:35 PM 46.4 °F 37.7 °F 21.2 °F 37% 29.76 in 10.0 mi West 26.5 mph 34.5 mph N/A   Overcast
7:55 PM 46.4 °F 37.2 °F 21.2 °F 37% 29.75 in 10.0 mi SW 29.9 mph 38.0 mph N/A   Overcast
8:15 PM 46.4 °F 39.8 °F 21.2 °F 37% 29.75 in 10.0 mi WSW 16.1 mph 21.9 mph N/A   Overcast
8:35 PM 46.4 °F 39.0 °F 19.4 °F 34% 29.74 in 10.0 mi WSW 19.6 mph 28.8 mph N/A   Overcast
8:55 PM 44.6 °F 38.1 °F 19.4 °F 37% 29.76 in 10.0 mi West 13.8 mph - N/A   Overcast
9:15 PM 42.8 °F 36.6 °F 23.0 °F 46% 29.76 in 10.0 mi WNW 11.5 mph - N/A   Overcast
9:35 PM 42.8 °F 33.8 °F 24.8 °F 49% 29.78 in 10.0 mi WNW 21.9 mph 26.5 mph N/A   Overcast
9:55 PM 41.0 °F 33.1 °F 26.6 °F 57% 29.78 in 10.0 mi WNW 15.0 mph 27.6 mph N/A   Overcast
10:15 PM 42.8 °F 34.0 °F 24.8 °F 49% 29.78 in 10.0 mi WNW 20.7 mph 29.9 mph N/A   Overcast
10:35 PM 41.0 °F 31.1 °F 26.6 °F 57% 29.78 in 10.0 mi West 23.0 mph 29.9 mph N/A   Overcast
10:55 PM 41.0 °F 31.1 °F 26.6 °F 57% 29.78 in 10.0 mi West 23.0 mph 38.0 mph N/A   Overcast
11:15 PM 41.0 °F 31.9 °F 26.6 °F 57% 29.78 in 10.0 mi West 19.6 mph 35.7 mph N/A   Overcast
11:35 PM 41.0 °F 30.5 °F 26.6 °F 57% 29.77 in 10.0 mi West 26.5 mph 32.2 mph N/A   Overcast
11:55 PM 37.4 °F 26.4 °F 23.0 °F 56% 29.79 in 10.0 mi West 23.0 mph 27.6 mph N/A   Scattered Clouds